Weather History for Lakeview AWS, OR

Change the Weather History Date:

Monday, November 25, 2013

  Actual Average Record
Temperature  
Mean Temperature 34 °F -  
Max Temperature 55 °F 40 °F 70 °F (1936)
Min Temperature 12 °F 22 °F -5 °F (2010)
Degree Days  
Heating Degree Days 32    
Moisture  
Dew Point 14 °F    
Average Humidity 60    
Maximum Humidity 93    
Minimum Humidity 18    
Precipitation  
Precipitation 0.00 in - - ()
Sea Level Pressure  
Sea Level Pressure 30.34 in    
Wind  
Wind Speed 4 mph (NNW)    
Max Wind Speed 9 mph    
Max Gust Speed -    
Visibility 10 miles    
Events      
Averages and records for this station are not official NWS values.
T = Trace of Precipitation, MM = Missing Value Source: NWS Daily Summary

Daily Weather History Graph

Daily Weather History Graph

Search for Another Location

Airport:

Trip Planner

Search our weather history database for the weather conditions in past years. The results will help you decide how hot, cold, wet, or windy it might be!

Date:

Astronomy

Nov. 25, 2013 Rise Set
Actual Time 7:04 AM PST 4:32 PM PST
Civil Twilight 6:33 AM PST 5:03 PM PST
Nautical Twilight 5:58 AM PST 5:38 PM PST
Astronomical Twilight 5:25 AM PST 6:11 PM PST
Moon No Moon Rise 12:19 PM PST (11/25)
Length of Visible Light 10h 30m
Length of Day
9h 28m
Waning Gibbous, 50% of the Moon is Illuminated
Nov 25
Waning Gibbous
Dec 2
New
Dec 9
First Quarter
Dec 17
Full
Dec 25
Last Quarter

Hourly Weather History & Observations

Time (PST) Temp. Windchill Dew Point Humidity Pressure Visibility Wind Dir Wind Speed Gust Speed Precip Events Conditions
12:15 AM 17.6 °F 10.7 °F 12.2 °F 79% 30.32 in 10.0 mi NNW 4.6 mph - N/A   Clear
12:35 AM 15.8 °F 5.1 °F 12.2 °F 86% 30.32 in 10.0 mi NNW 8.1 mph - N/A   Clear
12:55 AM 15.8 °F 7.2 °F 12.2 °F 86% 30.32 in 10.0 mi NNW 5.8 mph - N/A   Clear
1:15 AM 15.8 °F 7.2 °F 10.4 °F 79% 30.32 in 10.0 mi North 5.8 mph - N/A   Clear
1:35 AM 15.8 °F 6.1 °F 12.2 °F 86% 30.32 in 10.0 mi NNW 6.9 mph - N/A   Clear
1:55 AM 15.8 °F 10.2 °F 10.4 °F 79% 30.32 in 10.0 mi NW 3.5 mph - N/A   Clear
2:15 AM 15.8 °F - 12.2 °F 86% 30.33 in 10.0 mi Calm Calm - N/A   Clear
2:35 AM 15.8 °F 7.2 °F 12.2 °F 86% 30.33 in 10.0 mi ESE 5.8 mph - N/A   Clear
2:55 AM 15.8 °F 8.6 °F 10.4 °F 79% 30.33 in 10.0 mi ESE 4.6 mph - N/A   Clear
3:15 AM 15.8 °F - 10.4 °F 79% 30.32 in 10.0 mi Calm Calm - N/A   Clear
3:35 AM 15.8 °F 6.1 °F 10.4 °F 79% 30.33 in 10.0 mi West 6.9 mph - N/A   Clear
3:55 AM 15.8 °F 7.2 °F 12.2 °F 86% 30.32 in 10.0 mi NW 5.8 mph - N/A   Clear
4:15 AM 14.0 °F 3.9 °F 10.4 °F 86% 30.33 in 10.0 mi North 6.9 mph - N/A   Clear
4:35 AM 15.8 °F 6.1 °F 10.4 °F 79% 30.32 in 10.0 mi North 6.9 mph - N/A   Clear
4:55 AM 15.8 °F 6.1 °F 10.4 °F 79% 30.33 in 10.0 mi WNW 6.9 mph - N/A   Clear
5:15 AM 15.8 °F 7.2 °F 12.2 °F 86% 30.33 in 10.0 mi NNE 5.8 mph - N/A   Clear
5:35 AM 15.8 °F - 10.4 °F 79% 30.33 in 10.0 mi Calm Calm - N/A   Clear
5:55 AM 12.2 °F - 8.6 °F 85% 30.34 in 10.0 mi Calm Calm - N/A   Clear
6:15 AM 14.0 °F - 10.4 °F 86% 30.35 in 10.0 mi Calm Calm - N/A   Clear
6:35 AM 14.0 °F - 10.4 °F 86% 30.35 in 10.0 mi Calm Calm - N/A   Clear
6:55 AM 12.2 °F 4.3 °F 10.4 °F 92% 30.35 in 10.0 mi WSW 4.6 mph - N/A   Clear
7:15 AM 12.2 °F - 10.4 °F 92% 30.35 in 10.0 mi Calm Calm - N/A   Clear
7:35 AM 12.2 °F - 10.4 °F 92% 30.36 in 10.0 mi Calm Calm - N/A   Clear
7:55 AM 17.6 °F - 15.8 °F 93% 30.37 in 10.0 mi Calm Calm - N/A   Clear
8:15 AM 21.2 °F - 15.8 °F 80% 30.38 in 10.0 mi Calm Calm - N/A   Clear
8:35 AM 24.8 °F - 17.6 °F 74% 30.38 in 10.0 mi Calm Calm - N/A   Clear
8:55 AM 30.2 °F - 19.4 °F 64% 30.38 in 10.0 mi Calm Calm - N/A   Clear
9:15 AM 33.8 °F - 19.4 °F 56% 30.38 in 10.0 mi Calm Calm - N/A   Clear
9:35 AM 39.2 °F - 21.2 °F 49% 30.38 in 10.0 mi Calm Calm - N/A   Clear
9:55 AM 41.0 °F 39.0 °F 19.4 °F 42% 30.38 in 10.0 mi West 3.5 mph - N/A   Clear
10:15 AM 41.0 °F - 17.6 °F 39% 30.38 in 10.0 mi Calm Calm - N/A   Clear
10:35 AM 42.8 °F 40.1 °F 19.4 °F 39% 30.38 in 10.0 mi East 4.6 mph - N/A   Clear
10:55 AM 42.8 °F - 19.4 °F 39% 30.37 in 10.0 mi Calm Calm - N/A   Clear
11:15 AM 46.4 °F - 17.6 °F 32% 30.36 in 10.0 mi Calm Calm - N/A   Clear
11:35 AM 46.4 °F - 15.8 °F 29% 30.36 in 10.0 mi Calm Calm - N/A   Clear
11:55 AM 48.2 °F - 15.8 °F 27% 30.36 in 10.0 mi SE 3.5 mph - N/A   Clear
12:15 PM 51.8 °F - 17.6 °F 26% 30.35 in 10.0 mi SSW 3.5 mph - N/A   Clear
12:35 PM 51.8 °F - 17.6 °F 26% 30.35 in 10.0 mi Calm Calm - N/A   Clear
12:55 PM 53.6 °F - 15.8 °F 22% 30.34 in 10.0 mi SSE 4.6 mph - N/A   Clear
1:15 PM 51.8 °F - 12.2 °F 21% 30.34 in 10.0 mi South 4.6 mph - N/A   Clear
1:35 PM 53.6 °F - 12.2 °F 19% 30.33 in 10.0 mi South 3.5 mph - N/A   Clear
1:55 PM 53.6 °F - 12.2 °F 19% 30.33 in 10.0 mi South 4.6 mph - N/A   Clear
2:15 PM 53.6 °F - 15.8 °F 22% 30.33 in 10.0 mi Calm Calm - N/A   Clear
2:35 PM 53.6 °F - 12.2 °F 19% 30.33 in 10.0 mi Calm Calm - N/A   Clear
2:55 PM 53.6 °F - 10.4 °F 18% 30.33 in 10.0 mi Calm Calm - N/A   Clear
3:15 PM 55.4 °F - 14.0 °F 20% 30.33 in 10.0 mi Calm Calm - N/A   Clear
3:35 PM 55.4 °F - 15.8 °F 21% 30.33 in 10.0 mi Calm Calm - N/A   Clear
3:55 PM 55.4 °F - 15.8 °F 21% 30.33 in 10.0 mi Calm Calm - N/A   Clear
4:15 PM 51.8 °F - 15.8 °F 24% 30.33 in 10.0 mi SW 3.5 mph - N/A   Clear
4:35 PM 44.6 °F 43.1 °F 15.8 °F 31% 30.33 in 10.0 mi SW 3.5 mph - N/A   Clear
4:55 PM 39.2 °F - 15.8 °F 39% 30.33 in 10.0 mi Calm Calm - N/A   Clear
5:15 PM 33.8 °F 28.6 °F 17.6 °F 52% 30.33 in 10.0 mi NE 5.8 mph - N/A   Clear
5:35 PM 33.8 °F 27.7 °F 15.8 °F 48% 30.33 in 10.0 mi NNW 6.9 mph - N/A   Clear
5:55 PM 30.2 °F 21.9 °F 15.8 °F 55% 30.33 in 10.0 mi NNW 9.2 mph - N/A   Clear
6:15 PM 28.4 °F 20.4 °F 15.8 °F 59% 30.32 in 10.0 mi NNW 8.1 mph - N/A   Clear
6:35 PM 28.4 °F 20.4 °F 15.8 °F 59% 30.33 in 10.0 mi NNW 8.1 mph - N/A   Clear
6:55 PM 28.4 °F 21.2 °F 15.8 °F 59% 30.33 in 10.0 mi North 6.9 mph - N/A   Clear
7:15 PM 26.6 °F 21.2 °F 15.8 °F 64% 30.33 in 10.0 mi NNW 4.6 mph - N/A   Clear
7:35 PM 26.6 °F 19.1 °F 17.6 °F 69% 30.33 in 10.0 mi NNW 6.9 mph - N/A   Clear
7:55 PM 24.8 °F 16.9 °F 15.8 °F 69% 30.33 in 10.0 mi NNW 6.9 mph - N/A   Clear
8:15 PM 24.8 °F 16.9 °F 15.8 °F 69% 30.33 in 10.0 mi NW 6.9 mph - N/A   Clear
8:35 PM 24.8 °F 17.9 °F 15.8 °F 69% 30.33 in 10.0 mi NNW 5.8 mph - N/A   Clear
8:55 PM 23.0 °F 17.0 °F 14.0 °F 68% 30.33 in 10.0 mi NW 4.6 mph - N/A   Clear
9:15 PM 21.2 °F 14.9 °F 14.0 °F 74% 30.33 in 10.0 mi NW 4.6 mph - N/A   Clear
9:35 PM 24.8 °F 16.9 °F 15.8 °F 69% 30.33 in 10.0 mi NNW 6.9 mph - N/A   Clear
9:55 PM 21.2 °F 14.9 °F 15.8 °F 80% 30.33 in 10.0 mi NNW 4.6 mph - N/A   Clear
10:15 PM 21.2 °F 14.9 °F 12.2 °F 68% 30.33 in 10.0 mi North 4.6 mph - N/A   Clear
10:35 PM 21.2 °F 12.6 °F 14.0 °F 74% 30.32 in 10.0 mi NW 6.9 mph - N/A   Clear
10:55 PM 21.2 °F 12.6 °F 15.8 °F 80% 30.32 in 10.0 mi NNW 6.9 mph - N/A   Clear
11:15 PM 21.2 °F 11.7 °F 15.8 °F 80% 30.32 in 10.0 mi North 8.1 mph - N/A   Clear
11:35 PM 21.2 °F 13.6 °F 14.0 °F 74% 30.32 in 10.0 mi NNW 5.8 mph - N/A   Clear
11:55 PM 21.2 °F 13.6 °F 14.0 °F 74% 30.32 in 10.0 mi NNW 5.8 mph - N/A   Clear